Location: Unspecified
(0.0000°N, 0.0000°E)
Time: 23:59:53
(UTC+00:00)

Envisat - Pass Details

Date: 18 June 2019
Orbit: 764 x 766 km, 98.1° (Epoch: 15 September)

Event Time Altitude Azimuth Distance (km) Brightness Sun altitude
Rises 18:58:52 0° 173° (S) 3,227 5.9 -13.2°
Reaches altitude 10° 19:01:11 10° 175° (S) 2,299 5.2 -13.7°
Maximum altitude 19:06:13 68° 258° (WSW) 818 3.3 -14.9°
Drops below altitude 10° 19:11:14 10° 341° (NNW) 2,290 6.1 -16.0°
Sets 19:13:33 0° 343° (NNW) 3,213 6.9 -16.6°
